When you browse on this site, cookies collect data to enhance your experience and personalize the content and advertising you see.
Visit our Privacy Policy to learn more. By continuing to use the site, you agree to this use of cookies and data.
  • In Hungary
  • List of Countries
  • For 7 days
  • Water Temperature
  • Satellite Maps
  • Weather Map
  • News
  • Weather Widgets
  • user-avatar
    Login

    Hourly Weather Hartford

    Today, 16 January, Wednesday

    Time Temperature Precipitation Wind Pressure Humidity
    00:00 +7°C° 0 mm 4 mps 752 mmHg 84%
    01:00 +7°C° 0 mm 4 mps 751 mmHg 84%
    02:00 +7°C° 0 mm 5 mps 750 mmHg 85%
    03:00 +8°C° 0 mm 5 mps 749 mmHg 85%
    04:00 +7°C° 0 mm 5 mps 749 mmHg 85%
    05:00 +7°C° 0 mm 5 mps 748 mmHg 86%
    06:00 +7°C° 0 mm 5 mps 748 mmHg 86%
    07:00 +7°C° 0.3 mm 5 mps 747 mmHg 87%
    08:00 +7°C° 0.3 mm 5 mps 747 mmHg 87%
    09:00 +7°C° 0.3 mm 5 mps 747 mmHg 87%
    10:00 +6°C° 0.6 mm 5 mps 747 mmHg 85%
    11:00 +6°C° 0.6 mm 4 mps 747 mmHg 83%
    12:00 +7°C° 0 mm 3 mps 747 mmHg 76%
    13:00 +7°C° 0.1 mm 3 mps 747 mmHg 75%
    14:00 +6°C° 0.1 mm 4 mps 746 mmHg 74%
    15:00 +6°C° 0.1 mm 4 mps 746 mmHg 72%
    16:00 +5°C° 0 mm 3 mps 746 mmHg 75%
    17:00 +4°C° 0 mm 3 mps 747 mmHg 78%
    18:00 +3°C° 0 mm 3 mps 747 mmHg 80%
    19:00 +3°C° 0 mm 3 mps 747 mmHg 82%
    20:00 +3°C° 0 mm 3 mps 747 mmHg 83%
    21:00 +2°C° 0 mm 3 mps 747 mmHg 84%
    22:00 +2°C° 0 mm 3 mps 747 mmHg 84%
    23:00 +2°C° 0 mm 3 mps 747 mmHg 84%

    Tomorrow, 17 January, Thursday

    Time Temperature Precipitation Wind Pressure Humidity
    00:00 +3°C° 0 mm 2 mps 748 mmHg 84%
    01:00 +2°C° 0.1 mm 3 mps 748 mmHg 83%
    02:00 +2°C° 0.1 mm 3 mps 749 mmHg 83%
    03:00 +1°C° 0.1 mm 4 mps 749 mmHg 82%
    04:00 0°C° 0.1 mm 4 mps 751 mmHg 77%
    05:00 0°C° 0.1 mm 5 mps 752 mmHg 71%
    06:00 -2°C° 0.1 mm 6 mps 753 mmHg 66%
    07:00 -1°C° 0 mm 5 mps 753 mmHg 65%
    08:00 -1°C° 0 mm 5 mps 754 mmHg 64%
    09:00 -1°C° 0 mm 5 mps 755 mmHg 63%
    10:00 0°C° 0 mm 5 mps 756 mmHg 61%
    11:00 +1°C° 0 mm 5 mps 757 mmHg 58%
    12:00 +2°C° 0 mm 6 mps 757 mmHg 55%
    13:00 +2°C° 0 mm 5 mps 757 mmHg 56%
    14:00 +1°C° 0 mm 4 mps 758 mmHg 57%
    15:00 +2°C° 0 mm 3 mps 758 mmHg 59%
    16:00 +2°C° 0 mm 3 mps 758 mmHg 60%
    17:00 +2°C° 0 mm 2 mps 759 mmHg 62%
    18:00 +2°C° 0 mm 1 mps 759 mmHg 63%
    19:00 +2°C° 0 mm 1 mps 759 mmHg 64%
    20:00 +2°C° 0 mm 1 mps 760 mmHg 64%
    21:00 +2°C° 0 mm 1 mps 760 mmHg 64%
    22:00 +2°C° 0 mm 1 mps 760 mmHg 65%
    23:00 +2°C° 0 mm 1 mps 760 mmHg 66%

    Day after tomorrow, 18 January, Friday

    Time Temperature Precipitation Wind Pressure Humidity
    00:00 +1°C° 0 mm 2 mps 760 mmHg 67%
    01:00 +1°C° 0 mm 2 mps 760 mmHg 68%
    02:00 -1°C° 0 mm 2 mps 759 mmHg 69%
    03:00 -1°C° 0 mm 3 mps 759 mmHg 70%
    04:00 -1°C° 0 mm 3 mps 759 mmHg 69%
    05:00 -1°C° 0 mm 3 mps 758 mmHg 69%
    06:00 -2°C° 0 mm 4 mps 758 mmHg 68%
    07:00 -2°C° 0 mm 4 mps 757 mmHg 66%
    08:00 -1°C° 0 mm 5 mps 757 mmHg 64%
    09:00 -1°C° 0 mm 5 mps 757 mmHg 62%
    10:00 0°C° 0 mm 5 mps 756 mmHg 63%
    11:00 -1°C° 0 mm 6 mps 756 mmHg 63%
    12:00 +1°C° 0 mm 6 mps 756 mmHg 63%
    13:00 +1°C° 0.3 mm 6 mps 755 mmHg 67%
    14:00 +2°C° 0.3 mm 6 mps 754 mmHg 70%
    15:00 +2°C° 0.3 mm 6 mps 754 mmHg 74%
    16:00 +2°C° 0.1 mm 6 mps 753 mmHg 76%
    17:00 +1°C° 0.1 mm 6 mps 753 mmHg 79%
    18:00 0°C° 0.1 mm 7 mps 753 mmHg 81%
    19:00 +1°C° 0 mm 6 mps 753 mmHg 82%
    20:00 +1°C° 0 mm 6 mps 753 mmHg 84%
    21:00 +1°C° 0 mm 6 mps 752 mmHg 85%
    22:00 +1°C° 0.1 mm 6 mps 752 mmHg 86%
    23:00 +1°C° 0.1 mm 6 mps 752 mmHg 87%

    19 January, Saturday

    Time Temperature Precipitation Wind Pressure Humidity
    00:00 +1°C° 0.1 mm 5 mps 752 mmHg 87%
    01:00 +1°C° 0.1 mm 5 mps 751 mmHg 88%
    02:00 +1°C° 0.1 mm 5 mps 751 mmHg 90%
    03:00 +1°C° 0.1 mm 4 mps 751 mmHg 91%
    04:00 +1°C° 0 mm 4 mps 751 mmHg 92%
    05:00 +1°C° 0 mm 4 mps 750 mmHg 93%
    06:00 +2°C° 0 mm 3 mps 750 mmHg 94%
    07:00 +2°C° 0 mm 3 mps 750 mmHg 94%
    08:00 +2°C° 0 mm 3 mps 750 mmHg 95%
    09:00 +2°C° 0 mm 3 mps 750 mmHg 95%
    10:00 +3°C° 0 mm 3 mps 751 mmHg 94%
    11:00 +3°C° 0 mm 3 mps 751 mmHg 92%
    12:00 +4°C° 0 mm 3 mps 751 mmHg 90%
    13:00 +5°C° 0 mm 2 mps 751 mmHg 90%
    14:00 +5°C° 0 mm 2 mps 751 mmHg 90%
    15:00 +5°C° 0 mm 2 mps 751 mmHg 90%
    16:00 +5°C° 0 mm 2 mps 751 mmHg 91%
    17:00 +4°C° 0 mm 2 mps 751 mmHg 92%
    18:00 +4°C° 0 mm 2 mps 752 mmHg 94%
    19:00 +3°C° 0 mm 2 mps 752 mmHg 94%
    20:00 +3°C° 0 mm 2 mps 752 mmHg 94%
    21:00 +3°C° 0 mm 2 mps 753 mmHg 94%
    22:00 +3°C° 0.1 mm 2 mps 753 mmHg 94%
    23:00 +3°C° 0.1 mm 2 mps 754 mmHg 94%

    20 January, Sunday

    Time Temperature Precipitation Wind Pressure Humidity
    00:00 +3°C° 0.1 mm 2 mps 754 mmHg 94%
    01:00 +3°C° 0 mm 2 mps 754 mmHg 95%
    02:00 +3°C° 0 mm 2 mps 754 mmHg 95%
    03:00 +3°C° 0 mm 2 mps 755 mmHg 95%
    04:00 +3°C° 0 mm 2 mps 755 mmHg 94%
    05:00 +3°C° 0 mm 2 mps 756 mmHg 94%
    06:00 +3°C° 0 mm 2 mps 756 mmHg 94%
    07:00 +3°C° 0 mm 2 mps 757 mmHg 93%
    08:00 +4°C° 0 mm 1 mps 758 mmHg 92%
    09:00 +4°C° 0 mm 1 mps 758 mmHg 91%
    10:00 +4°C° 0 mm 1 mps 759 mmHg 90%
    11:00 +4°C° 0 mm 0 mps 760 mmHg 88%
    12:00 +4°C° 0 mm 0 mps 760 mmHg 87%
    13:00 +6°C° 0 mm 1 mps 761 mmHg 87%
    14:00 +6°C° 0 mm 1 mps 761 mmHg 88%
    15:00 +5°C° 0 mm 2 mps 762 mmHg 88%
    16:00 +4°C° 0 mm 3 mps 762 mmHg 88%
    17:00 +3°C° 0 mm 3 mps 763 mmHg 87%
    18:00 +3°C° 0 mm 4 mps 764 mmHg 87%
    19:00 +3°C° 0 mm 4 mps 765 mmHg 84%
    20:00 +1°C° 0 mm 4 mps 765 mmHg 82%
    21:00 +1°C° 0 mm 4 mps 766 mmHg 79%
    22:00 +1°C° 0 mm 3 mps 766 mmHg 78%
    23:00 +1°C° 0 mm 3 mps 766 mmHg 78%

    21 January, Monday

    Time Temperature Precipitation Wind Pressure Humidity
    00:00 +1°C° 0 mm 2 mps 767 mmHg 77%
    01:00 +1°C° 0 mm 2 mps 767 mmHg 78%
    02:00 +1°C° 0 mm 2 mps 767 mmHg 79%
    03:00 +1°C° 0 mm 2 mps 767 mmHg 80%
    04:00 +2°C° 0 mm 1 mps 767 mmHg 81%
    05:00 +2°C° 0 mm 1 mps 767 mmHg 81%
    06:00 +1°C° 0 mm 1 mps 767 mmHg 82%
    07:00 +2°C° 0 mm 1 mps 767 mmHg 81%
    08:00 +2°C° 0 mm 1 mps 767 mmHg 81%
    09:00 +2°C° 0 mm 1 mps 767 mmHg 81%
    10:00 +2°C° 0 mm 2 mps 767 mmHg 80%
    11:00 +3°C° 0 mm 2 mps 766 mmHg 79%
    12:00 +4°C° 0 mm 2 mps 766 mmHg 78%
    13:00 +3°C° 0 mm 3 mps 765 mmHg 79%
    14:00 +3°C° 0 mm 3 mps 764 mmHg 79%
    15:00 +3°C° 0 mm 3 mps 763 mmHg 80%
    16:00 +3°C° 0 mm 4 mps 761 mmHg 81%
    17:00 +1°C° 0 mm 5 mps 760 mmHg 81%
    18:00 +1°C° 0 mm 5 mps 759 mmHg 82%
    19:00 +1°C° 0.3 mm 6 mps 757 mmHg 82%
    20:00 +2°C° 0.3 mm 7 mps 756 mmHg 81%
    21:00 +1°C° 0.3 mm 8 mps 754 mmHg 81%
    22:00 +2°C° 1.2 mm 7 mps 753 mmHg 83%
    23:00 +2°C° 1.2 mm 7 mps 751 mmHg 85%
    Show more